Wind_Speed
2 9 9 9 9 10 11 10 10 11 13 13 14 16 18 17 18 16 16 15 16 16 15 15 15 16 16 16 16 16 16 16 16 17 18 18 18 17 16 18 18 15 16
4 10 8 9 10 9 11 12 11 11 12 13 14 15 16 14 15 15 14 15 15 15 14 14 14 14 14 15 14 14 15 15 15 15 17 17 16 16 16 16 16 15 13
7 10 8 6 8 10 10 12 12 12 13 13 14 15 15 15 15 15 15 16 15 15 14 14 13 14 14 14 14 14 15 15 15 16 17 15 16 16 15 18 17 16 15
8 8 7 7 6 9 11 12 13 13 14 15 14 15 16 15 15 15 16 16 17 15 16 16 16 15 15 15 15 15 15 15 15 14 14 14 15 15 17 17 16 15 17
7 7 7 8 9 9 11 12 14 15 14 16 16 16 17 17 16 16 16 18 18 17 16 16 16 16 16 17 16 15 14 13 12 13 12 10 15 18 17 15 14 13 13
7 6 3 8 12 11 11 13 13 16 16 16 16 16 17 17 18 17 17 18 19 18 17 15 14 16 17 18 16 16 13 12 11 14 11 21 20 16 13 13 12 12 11
3 3 4 1 5 13 13 13 15 15 17 17 17 17 17 17 17 17 18 19 20 19 17 16 17 16 16 16 16 13 13 13 14 18 19 20 17 13 11 11 11 10 11
4 3 3 3 2 5 12 15 15 17 17 19 19 18 17 17 17 17 19 20 22 21 17 16 21 18 15 14 13 13 14 16 17 20 19 18 14 10 10 10 10 9 11
9 8 7 4 4 6 12 15 18 17 17 18 21 21 19 18 18 19 20 22 22 23 19 17 20 23 16 13 13 13 17 18 17 16 13 11 10 11 10 11 10 11 12
11 11 10 9 7 7 8 14 17 19 19 19 21 22 22 20 19 21 20 23 25 25 21 18 19 23 21 16 13 14 19 19 17 14 12 11 10 10 11 11 12 12 13
11 12 13 13 11 9 8 10 14 17 21 21 21 22 22 22 22 22 21 25 28 25 22 18 18 21 23 19 17 19 20 18 16 15 14 11 10 9 12 12 11 13 14
12 12 12 15 15 14 12 10 13 16 17 22 23 24 24 25 24 24 23 27 28 25 21 19 19 21 22 22 20 20 19 18 17 16 14 10 8 13 14 14 13 15 14
13 12 11 14 16 17 16 13 12 13 17 18 22 24 25 26 26 26 25 30 29 26 22 20 20 25 25 25 24 23 21 20 19 16 15 12 10 14 17 13 17 16 16
10 11 13 14 16 18 18 17 14 13 14 18 20 22 25 27 29 28 30 33 31 28 25 24 25 26 27 26 26 25 22 22 19 17 16 13 15 14 18 17 14 14 17
12 13 15 16 16 17 20 19 16 13 13 14 16 19 22 27 30 31 33 35 33 30 28 27 28 27 28 28 28 27 25 22 20 19 18 13 22 16 18 15 16 15 14
13 15 15 16 17 15 20 20 17 14 13 12 12 15 18 23 29 33 35 36 34 32 31 30 31 30 29 30 30 27 25 23 22 21 16 15 21 17 19 18 16 15 13
14 16 17 17 16 15 18 19 17 15 13 12 11 13 15 20 25 28 32 37 37 36 35 33 32 31 30 31 29 27 25 24 23 21 18 19 19 18 18 13 17 13 12
14 17 15 15 16 15 16 19 17 15 14 14 13 14 14 17 14 16 18 32 38 34 37 37 37 35 33 33 30 28 26 26 24 23 19 21 17 19 17 17 16 14 13
13 15 16 15 16 17 17 19 18 16 16 17 18 20 19 19 19 17 12 16 28 33 38 32 39 39 35 35 31 27 27 27 26 23 20 20 21 17 16 16 14 16 14
13 16 17 17 16 16 17 18 18 18 19 19 21 23 24 25 25 25 25 22 22 23 34 37 30 34 37 35 30 27 27 28 27 25 25 24 22 17 17 18 18 16 15
11 12 14 16 15 14 15 17 18 22 22 22 22 24 24 24 24 24 24 25 26 31 26 36 35 34 31 34 29 22 21 26 26 25 25 24 24 21 20 19 18 16 17
12 15 14 14 13 13 16 18 15 14 16 21 20 21 23 24 23 24 25 26 29 32 33 30 32 28 22 39 21 18 4 5 18 23 24 24 23 22 23 22 20 18 18
14 15 13 12 11 13 14 15 17 19 18 22 25 25 24 26 27 28 28 27 30 33 32 37 36 33 23 32 31 17 4 4 10 15 22 24 24 23 22 22 22 20 20
15 14 12 12 12 14 16 18 19 17 19 22 24 27 21 23 25 28 30 29 31 33 34 42 46 41 30 26 31 25 18 19 5 3 12 23 26 26 24 23 23 22 21
15 12 11 12 15 15 18 18 16 21 24 25 25 26 26 23 26 27 28 29 33 35 35 39 40 38 42 30 27 23 20 23 23 5 3 7 20 25 25 25 25 24 23
12 11 10 12 17 16 20 18 17 20 25 21 23 23 24 25 27 26 29 30 32 32 36 44 44 41 34 31 29 29 26 12 11 8 3 4 13 18 27 25 25 25 24
Wind_Direction
235 184 185 199 189 185 177 175 166 172 160 150 149 153 151 151 144 146 144 140 133 130 130 129 120 128 124 119 115 115 117 123 123 124 120 116 114 109 111 112 110 109 110
164 172 177 199 189 191 193 187 187 175 179 161 156 155 160 159 147 151 149 144 142 139 138 134 135 128 124 123 123 127 133 127 121 119 127 118 119 115 117 114 119 114 117
159 175 178 180 203 205 199 197 191 188 181 186 170 168 167 157 158 160 156 152 149 149 146 144 142 135 133 130 133 131 131 132 125 123 126 121 119 122 117 111 110 105 121
147 172 191 201 210 218 215 201 200 200 194 188 188 178 169 169 171 172 166 160 157 154 152 153 151 144 140 137 134 130 131 135 134 129 130 125 122 130 123 107 106 97 95
135 169 200 219 223 222 224 223 207 206 202 198 191 187 182 177 178 182 173 169 167 165 160 152 150 148 146 141 135 129 127 132 141 142 134 133 140 122 111 110 110 110 100
131 155 203 250 234 230 227 228 226 214 212 207 200 195 191 187 185 186 185 181 175 174 174 163 152 149 151 147 142 138 125 125 135 147 134 128 115 111 111 113 113 108 106
162 138 121 67 272 236 234 235 232 232 220 215 211 205 204 202 198 196 193 184 179 178 177 166 162 153 154 155 154 152 139 132 126 136 126 116 116 113 106 105 106 109 115
227 239 239 288 247 264 248 242 238 236 234 222 217 215 214 212 210 206 201 192 186 184 178 166 165 160 163 168 164 167 162 147 136 133 128 121 118 118 115 110 109 115 122
236 246 266 274 302 292 262 245 241 240 237 235 227 225 224 220 223 217 214 200 198 190 185 173 168 168 168 173 172 174 171 164 156 147 145 136 131 122 123 120 119 118 124
245 254 259 263 276 293 287 256 244 240 241 240 237 231 229 228 225 225 224 213 206 194 187 182 176 173 173 173 176 169 166 166 164 161 153 142 131 129 132 127 124 117 123
253 263 268 264 265 274 279 266 252 247 242 240 242 238 235 230 225 227 228 211 200 196 191 190 184 180 177 177 175 172 170 170 172 165 159 153 141 142 139 131 130 138 130
269 276 275 269 263 261 268 271 262 250 248 241 238 239 236 234 229 228 224 210 198 200 198 198 190 181 182 176 176 181 182 182 177 175 169 147 142 149 150 132 128 134 138
280 280 286 284 271 255 254 265 268 258 248 245 240 238 239 236 230 228 224 207 201 200 200 200 191 188 186 181 179 183 186 184 177 176 161 163 148 152 142 153 129 130 129
275 283 296 293 279 262 247 251 259 263 255 248 244 240 236 234 230 225 220 206 205 204 201 198 194 195 192 186 183 183 187 185 179 170 161 155 161 165 149 143 137 128 122
271 286 298 300 288 268 246 245 251 256 263 255 251 249 241 237 233 226 219 209 205 205 203 198 197 196 193 187 185 184 186 188 179 167 163 172 170 167 154 152 149 138 128
271 277 288 294 295 272 245 240 245 253 264 263 251 252 245 241 236 230 222 212 207 206 201 198 195 193 190 186 182 187 188 188 181 169 166 165 178 178 163 165 150 150 146
272 280 278 283 287 274 247 237 240 248 255 255 235 238 234 231 218 221 220 214 213 207 201 201 196 194 189 187 185 186 189 186 182 172 170 176 186 186 155 157 165 162 171
273 273 278 277 278 271 247 240 240 238 240 241 232 228 219 224 216 217 210 212 213 204 198 197 190 191 189 188 187 186 193 184 184 177 178 184 177 159 164 166 159 164 158
282 276 274 275 275 269 251 240 242 242 242 242 241 240 238 232 228 241 239 228 210 204 197 200 189 190 188 187 188 189 195 185 181 181 186 186 190 173 173 173 171 173 168
287 286 276 273 271 264 249 238 240 246 248 250 250 248 247 250 249 247 251 242 227 211 194 194 193 188 190 185 178 182 186 186 183 183 184 191 195 183 183 193 191 176 178
288 293 282 275 268 251 229 225 234 244 259 266 261 254 249 246 246 245 246 243 232 217 201 192 189 185 173 172 155 157 173 183 183 183 187 191 195 199 195 188 184 180 178
292 299 284 267 258 246 235 231 236 255 264 262 258 260 255 248 243 236 236 235 222 212 204 192 183 175 178 174 170 144 130 163 188 184 185 187 188 197 192 189 189 190 183
297 304 288 260 252 249 234 240 251 260 261 262 256 253 253 245 240 238 233 230 227 215 202 192 184 178 183 180 174 168 146 178 140 193 189 191 193 196 196 195 195 198 197
308 308 289 249 245 248 230 233 241 242 255 254 255 257 249 246 247 242 238 228 226 216 202 192 188 179 177 190 176 190 176 149 156 137 200 198 199 202 202 202 204 204 203
311 313 301 260 253 251 234 235 251 257 253 257 248 258 253 248 244 244 239 228 227 215 209 184 180 183 180 188 184 168 150 150 165 133 161 189 210 211 209 213 213 211 207
315 310 299 271 267 257 239 242 257 268 257 239 243 246 251 246 234 236 239 230 222 215 196 185 182 178 173 178 188 181 162 158 147 143 115 165 198 212 212 212 214 213 213
Height
784 785 787 789 790 791 792 793 795 796 798 798 800 802 803 805 807 809 810 811 813 815 817 818 819 820 822 823 825 826 828 829 829 831 832 833 834 835 836 836 837 838 839
784 785 787 789 790 791 792 794 795 796 798 799 801 802 804 806 808 810 811 813 815 816 818 820 821 822 824 825 827 828 829 830 831 832 834 835 835 837 837 838 839 840 841
784 786 788 790 791 791 793 795 796 796 798 800 801 803 805 806 808 810 812 814 816 818 819 821 823 823 825 826 828 829 829 831 832 834 835 836 837 838 840 840 841 841 842
786 787 788 789 790 791 792 793 795 796 798 799 801 803 805 807 809 811 813 815 817 818 820 822 823 825 826 828 829 830 831 832 834 835 837 838 839 840 842 843 843 844 845
787 787 788 789 790 791 792 793 794 796 798 799 800 802 804 806 809 811 813 815 817 819 820 822 824 825 827 829 830 831 832 833 835 836 838 839 841 842 843 844 845 846 847
787 788 788 788 788 790 791 791 794 795 797 799 801 802 804 805 808 811 813 815 816 819 820 822 824 826 828 830 831 833 833 834 835 837 839 840 842 844 845 845 846 847 849
787 787 788 788 787 788 790 791 792 794 795 798 799 802 803 805 807 809 812 814 816 818 820 822 824 827 829 830 832 833 834 836 836 838 840 841 843 845 847 847 848 849 850
787 786 787 787 787 787 788 789 790 792 794 796 797 800 802 803 806 809 811 813 815 817 820 821 823 827 830 831 833 834 835 837 839 840 842 843 845 847 848 849 850 850 851
785 785 785 785 785 786 786 786 788 790 792 794 796 798 799 802 804 806 809 811 814 816 818 821 822 824 829 832 833 835 836 838 840 841 843 844 846 848 849 850 851 851 852
783 783 783 783 783 784 784 784 785 787 789 791 794 796 798 800 802 804 807 810 812 814 817 820 822 823 826 831 833 835 837 839 840 842 844 846 847 849 850 851 852 853 853
780 780 780 780 781 781 781 782 783 784 786 788 791 793 795 797 799 801 804 807 810 813 816 818 821 823 824 829 833 836 838 839 841 843 844 846 848 850 851 852 853 854 855
777 777 777 777 778 779 779 779 780 781 782 784 787 789 792 794 797 799 802 805 808 811 814 817 820 823 824 827 832 836 837 839 842 843 845 847 848 850 852 852 855 856 857
774 774 774 774 774 775 776 777 777 778 779 781 783 785 788 791 794 796 799 802 805 808 812 816 819 821 822 824 828 833 837 839 842 843 845 847 848 851 852 855 856 857 858
771 771 771 771 770 771 773 774 774 775 776 777 779 781 784 786 789 792 795 798 800 804 808 812 816 819 821 824 827 831 836 839 841 842 845 847 849 851 853 856 858 859 860
768 767 767 767 767 767 768 770 771 772 773 774 776 777 779 782 785 788 791 794 796 800 805 809 813 817 820 822 826 829 833 838 841 842 844 847 849 851 853 856 859 861 862
766 765 765 764 763 763 763 766 768 769 770 771 773 775 777 778 781 784 787 790 793 795 800 804 808 813 818 821 824 828 832 837 841 841 844 846 849 851 853 856 859 862 864
763 762 762 761 760 760 760 763 765 767 768 769 771 772 774 776 777 779 783 785 789 791 794 801 805 811 815 821 823 827 831 835 840 842 844 847 848 851 854 856 859 861 864
760 759 759 759 757 757 758 760 762 764 766 767 769 770 771 774 775 777 778 780 784 786 781 793 798 806 811 816 821 825 829 833 838 841 844 846 848 850 854 856 858 861 863
757 756 755 755 754 755 756 758 760 761 763 765 766 768 770 771 773 774 777 777 780 781 780 790 791 799 806 811 817 823 828 832 836 840 843 846 848 851 853 856 859 861 863
754 752 751 751 750 751 753 755 756 758 759 761 762 763 765 767 768 771 773 775 777 779 778 784 791 795 800 807 813 821 827 831 834 837 841 845 848 850 853 856 859 860 863
750 749 748 746 746 747 749 751 753 753 755 756 758 759 760 762 764 766 768 771 772 777 778 778 786 793 798 802 810 820 826 831 834 836 840 844 847 849 852 855 859 861 862
746 746 745 744 744 744 745 747 750 752 753 753 753 753 754 757 758 761 763 766 768 772 772 775 779 788 798 797 803 813 825 833 833 835 838 842 846 849 851 854 857 860 861
743 742 741 741 742 742 742 744 747 748 748 749 748 745 748 749 751 754 756 760 762 765 765 767 773 781 792 794 796 801 816 821 828 834 836 841 844 847 849 852 855 858 860
741 739 738 739 740 740 741 741 742 743 743 743 742 742 741 743 745 747 749 752 756 759 760 763 769 771 785 793 795 798 801 803 816 830 835 838 841 844 846 850 852 854 857
738 736 736 736 736 736 736 737 736 737 736 737 736 736 736 737 739 741 743 746 748 751 756 757 762 770 767 787 788 794 798 802 809 820 830 835 838 840 843 846 849 851 853
734 734 733 733 733 734 734 732 730 731 731 730 730 731 730 731 732 734 736 738 741 744 745 748 756 762 768 774 788 793 792 798 806 814 824 831 833 836 839 842 845 848 850